Lexington Weather

Lexington, Massachusetts, USA

74°F
8/7/2020 11:43am 
  • Lexington Conditions: Clear
  • Temperature: 73.6°F / 23.1°CWarmer 2.5°F than last hour.
  • Dew Point: 63.7°FIncreased 0.2°Fsince last hour.
  • Relative Humidity: 71%Decreased 6.0% since last hour.
  • Wind: Calm, 10-min avg: Calm, gust: 2 mph
  • Barometer: 30.13 inFalling 0.02  inHg/hr Falling Slowly
  • Visibility: 10 miles
  • Rain Today: 0.00 in
  •   

Regional Weather Roundup
for Boston / Norton, MA

        
000
ASUS41 KBOX 011204
RWRBOX

REGIONAL WEATHER ROUNDUP
NATIONAL WEATHER SERVICE BOSTON/NORTON MA
800 AM EDT SAT AUG 01 2020

NOTE:  "FAIR" INDICATES FEW OR NO CLOUDS BELOW 12,000 FEET WITH NO 
SIGNIFICANT WEATHER AND/OR OBSTRUCTIONS TO VISIBILITY.

MAZALL-011300-
EASTERN MASSACHUSETTS
  
CITY           SKY/WX    TMP DP  RH WIND       PRES   REMARKS
BOSTON         MOSUNNY   74  63  68 N3        29.92R                  
6HR MIN TEMP:  69; 6HR MAX TEMP:  74;                                

BEVERLY        SUNNY     72  65  78 N5        29.91R                  
LAWRENCE       SUNNY     72  64  76 N3        29.94R                  
BEDFORD        SUNNY     72  63  73 N6        29.91R                  
BLUE HILL      NOT AVBL                                               
NORWOOD        SUNNY     73  65  75 CALM      29.91R                  
MARSHFIELD     SUNNY     75  66  73 CALM      29.91R                  
PLYMOUTH       SUNNY     74  68  81 NE7       29.91R                  
TAUNTON        SUNNY     73  67  81 CALM      29.91R                  
NEW BEDFORD    SUNNY     75  71  87 CALM      29.90R                  
$$

MAZALL-011300-
CAPE COD AND THE ISLANDS
  
CITY           SKY/WX    TMP DP  RH WIND       PRES   REMARKS
FALMOUTH       NOT AVBL                                               
HYANNIS        SUNNY     76  70  82 N6        29.89R                  
CHATHAM        SUNNY     76  69  79 CALM      29.92R                  
NANTUCKET      SUNNY     76  69  79 N9        29.90R                  
MARTHAS VNYRD  SUNNY     75  71  87 N6        29.90R                  
$$
 
MAZALL-011300-
CENTRAL AND WESTERN MASSACHUSETTS
  
CITY           SKY/WX    TMP DP  RH WIND       PRES   REMARKS
WORCESTER      SUNNY     74  59  59 N7        29.96R                  
6HR MIN TEMP:  67; 6HR MAX TEMP:  74;                                

FITCHBURG      SUNNY     74  61  63 NW3       29.94R                  
ORANGE         SUNNY     69  61  75 CALM      29.96R                  
SPRINGFIELD    SUNNY     70  61  71 CALM      29.93R                  
WESTFIELD      SUNNY     72  62  71 NE6       29.94R                  
NORTH ADAMS    SUNNY     64  59  83 CALM      29.98R                  
PITTSFIELD     SUNNY     68  61  78 CALM      29.97R                  
$$
 
RIZALL-011300-
RHODE ISLAND
  
CITY           SKY/WX    TMP DP  RH WIND       PRES   REMARKS
PROVIDENCE     MOSUNNY   75  69  81 N5        29.91R                  
6HR MIN TEMP:  66; 6HR MAX TEMP:  75;                                

NEWPORT        SUNNY     76  70  82 N5        29.91R                  
BLOCK ISLAND   SUNNY     75  69  81 CALM      29.92R                  
SMITHFIELD     SUNNY     72  66  81 N5        29.93R                  
WESTERLY       SUNNY     74  68  81 CALM      29.92R                  
$$
 
CTZALL-011300-
CONNECTICUT
  
CITY           SKY/WX    TMP DP  RH WIND       PRES   REMARKS
BRADLEY INTL   MOSUNNY   72  60  66 N7        29.93R                  
6HR MIN TEMP:  64; 6HR MAX TEMP:  72;                                

HARTFORD       SUNNY     74  62  66 N5        29.93R                  
BRIDGEPORT     SUNNY     75  64  68 N8        29.92R                  
DANBURY        SUNNY     70  65  84 CALM      29.95R                  
GROTON         SUNNY     74  68  81 N6        29.91R                  
NEW HAVEN      MOSUNNY   75  65  70 N6        29.92R                  
CHESTER        NOT AVBL                                               
MERIDEN        SUNNY     73  62  68 CALM      29.93R                  
WILLIMANTIC    SUNNY     70  64  81 CALM      29.93R                  
OXFORD         SUNNY     70  64  81 N6        29.96R                  
$$

MEZ002-015-021-024-NHZ003-005-008-011-012-014-VTZ005-008-011300-
NORTHERN NEW ENGLAND
  
CITY           SKY/WX    TMP DP  RH WIND       PRES   REMARKS
PORTLAND ME    SUNNY     75  62  64 N5          N/A                   
6HR MIN TEMP:  67; 6HR MAX TEMP:  75;                                

BANGOR ME      SUNNY     70  61  73 NE6       29.91R                  
CONCORD NH     SUNNY     69  60  73 NW5       29.94R                  
MANCHESTER NH  MOSUNNY   73  61  65 N7        29.92R                  
NASHUA NH      SUNNY     71  65  81 NW3       29.94R                  
PORTSMOUTH NH  MOSUNNY   74  60  60 NW3       29.91R                  
JAFFREY NH     SUNNY     66  61  84 CALM      29.97R                  
KEENE NH       SUNNY     63  61  93 CALM      29.97R                  
BURLINGTON VT  SUNNY     69  60  73 CALM      29.95R                  
MT. WASHINGTON NOT AVBL                                               
$$

NYZ052-076-011300-
EASTERN NEW YORK
  
CITY           SKY/WX    TMP DP  RH WIND       PRES   REMARKS
ALBANY         MOSUNNY   68  63  84 N5        29.96R                  
6HR MIN TEMP:  63; 6HR MAX TEMP:  68;                                

NEW YORK CITY  MOSUNNY   78  62  57 NE6       29.92R                  
6HR MIN TEMP:  74; 6HR MAX TEMP:  78;                                

$$
 
ANZALL-011300-
MARINE OBSERVATIONS
  
STATION/POSITION TIME  TEMP    WIND        PRES    VSBY  WAVE
                       AIR SEA DIR/SP/G                  HT/PER
                 (UTC) (F)     (DEG/KT/KT) (MB)    (MI)  (FT/S)
BOSTON BUOY      1150   72 73  330/  4/  4 1011.5R         2/10
BUZZARDS BAY     1100           CALM  /  1 1013.3R
NANTUCKET SOUND  1140      76   10/  6/  8 1011.8R
MASS BAY-STELLWA 1104   72      30/ 10/ 10 1010.1R  1 7/8  2/ 8
ISLE OF SHOALS   1100   70     350/  7/  7 1011.9R
S OF BLOCK IS    1126      73                N/A           3/ 8
$$

......................KEY.........................
  SKY/WX - SKY CONDITION/PRESENT WEATHER
  TMP    - TEMPERATURE IN FAHRENHEIT
  DWPT   - DEWPOINT IN FAHRENHEIT
  RH     - RELATIVE HUMIDITY IN PERCENT
  WIND   - DIRECTION AND SPEED IN MPH
  PRES   - MEAN SEA LEVEL PRESSURE IN INCHES OF HG
  WCI    - WIND CHILL INDEX
  VSB    - VISIBILITY IN MILES
  HX     - HEAT INDEX
  TC     - TEMPERATURE IN CELSIUS
  VRB    - VARIABLE WIND DIRECTION
  N/A    - NOT AVAILABLE
  
      

Other recent Regional Weather Roundups

Fri Aug 7, 11:04am

Fri Aug 7, 10:04am

Fri Aug 7, 9:04am

Fri Aug 7, 8:04am

Fri Aug 7, 7:04am

Fri Aug 7, 6:04am

Fri Aug 7, 5:04am

Fri Aug 7, 4:04am

Fri Aug 7, 3:04am

Fri Aug 7, 2:04am

Fri Aug 7, 1:05am

Fri Aug 7, 12:04am

Thu Aug 6, 11:04pm

Thu Aug 6, 10:04pm

Thu Aug 6, 9:04pm

Thu Aug 6, 8:04pm

Thu Aug 6, 7:04pm

Thu Aug 6, 6:04pm

Thu Aug 6, 5:04pm

Thu Aug 6, 4:05pm

Thu Aug 6, 3:04pm

Thu Aug 6, 2:05pm

Thu Aug 6, 1:04pm

Thu Aug 6, 12:04pm

Thu Aug 6, 11:04am

Thu Aug 6, 10:04am

Thu Aug 6, 9:04am

Thu Aug 6, 8:04am

Thu Aug 6, 7:04am

Thu Aug 6, 6:04am

Thu Aug 6, 5:04am

Thu Aug 6, 4:04am

Thu Aug 6, 3:04am

Thu Aug 6, 2:05am

Thu Aug 6, 1:04am

Thu Aug 6, 12:04am

Wed Aug 5, 11:04pm

Wed Aug 5, 10:04pm

Wed Aug 5, 9:04pm

Wed Aug 5, 8:05pm

Wed Aug 5, 7:04pm

Wed Aug 5, 6:04pm

Wed Aug 5, 5:04pm

Wed Aug 5, 4:05pm

Wed Aug 5, 3:04pm

Wed Aug 5, 2:04pm

Wed Aug 5, 1:04pm

Wed Aug 5, 12:04pm

Wed Aug 5, 11:04am

Wed Aug 5, 10:04am

Wed Aug 5, 9:04am

Wed Aug 5, 8:04am

Wed Aug 5, 7:04am

Wed Aug 5, 6:04am

Wed Aug 5, 5:04am

Wed Aug 5, 4:04am

Wed Aug 5, 3:04am

Wed Aug 5, 2:05am

Wed Aug 5, 1:04am

Wed Aug 5, 12:05am

Tue Aug 4, 11:05pm

Tue Aug 4, 10:05pm

Tue Aug 4, 9:04pm

Tue Aug 4, 8:04pm

Tue Aug 4, 7:05pm

Tue Aug 4, 6:05pm

Tue Aug 4, 5:05pm

Tue Aug 4, 4:05pm

Tue Aug 4, 3:04pm

Tue Aug 4, 2:05pm

Tue Aug 4, 1:04pm

Tue Aug 4, 12:05pm

Tue Aug 4, 11:04am

Tue Aug 4, 10:04am

Tue Aug 4, 9:04am

Tue Aug 4, 8:04am

Tue Aug 4, 7:04am

Tue Aug 4, 6:04am

Tue Aug 4, 5:04am

Tue Aug 4, 4:04am

Tue Aug 4, 3:04am

Tue Aug 4, 2:04am

Tue Aug 4, 1:04am

Tue Aug 4, 12:04am

Mon Aug 3, 11:04pm

Mon Aug 3, 10:04pm

Mon Aug 3, 9:04pm

Mon Aug 3, 8:05pm

Mon Aug 3, 7:04pm

Mon Aug 3, 6:04pm

Mon Aug 3, 5:04pm

Mon Aug 3, 4:05pm

Mon Aug 3, 3:04pm

Mon Aug 3, 2:04pm

Mon Aug 3, 1:04pm

Mon Aug 3, 12:05pm

Mon Aug 3, 11:04am

Mon Aug 3, 10:04am

Mon Aug 3, 9:05am

Mon Aug 3, 8:04am

Mon Aug 3, 7:04am

Mon Aug 3, 6:04am

Mon Aug 3, 5:04am

Mon Aug 3, 4:04am

Mon Aug 3, 3:04am

Mon Aug 3, 2:04am

Mon Aug 3, 1:04am

Mon Aug 3, 12:05am

Sun Aug 2, 11:04pm

Sun Aug 2, 10:04pm

Sun Aug 2, 9:04pm

Sun Aug 2, 8:04pm

Sun Aug 2, 7:04pm

Sun Aug 2, 6:04pm

Sun Aug 2, 5:04pm

Sun Aug 2, 4:05pm

Sun Aug 2, 3:04pm

Sun Aug 2, 2:05pm

Sun Aug 2, 1:04pm

Sun Aug 2, 12:04pm

Sun Aug 2, 11:04am

Sun Aug 2, 10:04am

Sun Aug 2, 9:05am

Sun Aug 2, 8:05am

Sun Aug 2, 7:04am

Sun Aug 2, 6:04am

Sun Aug 2, 5:04am

Sun Aug 2, 4:05am

Sun Aug 2, 3:04am

Sun Aug 2, 2:04am

Sun Aug 2, 1:04am

Sun Aug 2, 12:05am

Sat Aug 1, 11:04pm

Sat Aug 1, 10:04pm

Sat Aug 1, 9:04pm

Sat Aug 1, 8:05pm

Sat Aug 1, 7:04pm

Sat Aug 1, 6:04pm

Sat Aug 1, 5:05pm

Sat Aug 1, 4:05pm

Sat Aug 1, 3:04pm

Sat Aug 1, 2:04pm

Sat Aug 1, 1:04pm

Sat Aug 1, 12:04pm

Sat Aug 1, 11:05am

Sat Aug 1, 10:05am

Sat Aug 1, 9:04am

Sat Aug 1, 7:04am

Sat Aug 1, 6:04am

Sat Aug 1, 5:04am

Sat Aug 1, 4:05am

Sat Aug 1, 3:04am

Sat Aug 1, 2:04am

Sat Aug 1, 1:04am

Sat Aug 1, 12:05am

Fri Jul 31, 11:05pm

Fri Jul 31, 10:04pm

Fri Jul 31, 9:04pm

Fri Jul 31, 8:05pm

Fri Jul 31, 7:05pm

Fri Jul 31, 6:04pm

Fri Jul 31, 5:04pm

Fri Jul 31, 4:05pm

Fri Jul 31, 3:04pm

Fri Jul 31, 2:05pm

Fri Jul 31, 1:04pm

Fri Jul 31, 12:04pm

Meta data:

ID: b0c46a0b-3159-40ed-b52c-b8f76d69b452
Link: https://api.weather.gov/products/b0c46a0b-3159-40ed-b52c-b8f76d69b452